Meeandah, Australia

7:46 PM AEST on October 24, 2017 (GMT +1000)
Meeandah

Weather History for 94578 - November, 2013

Change the Weather History Date:

Monday, November 11, 2013

  Actual Average Record
Temperature  
Mean Temperature 74 °F -  
Max Temperature 80 °F 82 °F - ()
Min Temperature 68 °F 66 °F - ()
Cooling Degree Days 9    
Growing Degree Days 24 (Base 50)    
Moisture  
Dew Point 67 °F    
Average Humidity 78    
Maximum Humidity 94    
Minimum Humidity 54    
Precipitation  
Precipitation 0.04 in 0.15 in - ()
Sea Level Pressure  
Sea Level Pressure 29.92 in    
Wind  
Wind Speed 10 mph ()    
Max Wind Speed 22 mph    
Max Gust Speed -    
Visibility 7.5 miles    
Events Rain    
T = Trace of Precipitation, MM = Missing Value Source: Averaged Metar Reports

Daily Weather History Graph

Daily Weather History Graph

Search for Another Location

Airport or City:

Trip Planner

Search our weather history database for the weather conditions in past years. The results will help you decide how hot, cold, wet, or windy it might be!

Date:

Astronomy

Nov. 11, 2013 Rise Set
Actual Time 4:50 AM AEST 6:13 PM AEST
Civil Twilight 4:25 AM AEST 6:38 PM AEST
Nautical Twilight 3:55 AM AEST 7:08 PM AEST
Astronomical Twilight 3:24 AM AEST 7:39 PM AEST
Moon 12:13 PM AEST (11/11) 12:20 AM AEST (11/11)
Length of Visible Light 14h 12m
Length of Day
13h 22m
First Quarter, 59% of the Moon is Illuminated
Nov 11
First Quarter
Nov 18
Full
Nov 26
Last Quarter
Dec 3
New
Dec 10
First Quarter

Hourly Weather History & Observations

Time (AEST) Temp. Heat Index Dew Point Humidity Pressure Visibility Wind Dir Wind Speed Gust Speed Precip Events Conditions
12:00 AM 70 °F - 67 °F 88% 29.91 in 12 mi NE 9.2 mph - -   Partly Cloudy
12:00 AM 69.8 °F - 68.0 °F 94% 29.89 in 6.2 mi NE 9.2 mph - N/A   Mostly Cloudy
12:30 AM 69.8 °F - 68.0 °F 94% 29.92 in 6.2 mi North 10.4 mph - N/A   Mostly Cloudy
1:00 AM 71 °F - 67 °F 84% 29.92 in - North 9.2 mph - -  
1:00 AM 71.6 °F - 68.0 °F 88% 29.92 in 6.2 mi North 9.2 mph - N/A   Mostly Cloudy
1:30 AM 69.8 °F - 68.0 °F 94% 29.89 in 6.2 mi West 8.1 mph - N/A   Mostly Cloudy
2:00 AM 69.8 °F - 68.0 °F 94% 29.89 in 6.2 mi SW 4.6 mph - N/A   Mostly Cloudy
2:30 AM 69.8 °F - 68.0 °F 94% 29.89 in 6.2 mi SSE 4.6 mph - N/A Rain Light Rain
3:00 AM 70 °F - 68 °F 92% 29.90 in 12 mi SE 3.5 mph - - Rain Light Rain
3:00 AM 69.8 °F - 68.0 °F 94% 29.89 in 6.2 mi SE 3.5 mph - N/A   Mostly Cloudy
3:30 AM 69.8 °F - 68.0 °F 94% 29.89 in 6.2 mi East 2.3 mph - N/A   Mostly Cloudy
4:00 AM 70 °F - 69 °F 94% 29.91 in - Calm Calm - -  
4:00 AM 69.8 °F - 68.0 °F 94% 29.89 in 6.2 mi Calm Calm - N/A   Scattered Clouds
4:30 AM 69.8 °F - 68.0 °F 94% 29.92 in 6.2 mi Calm Calm - N/A   Mostly Cloudy
5:00 AM 69.8 °F - 68.0 °F 94% 29.92 in 6.2 mi WSW 5.8 mph - N/A   Mostly Cloudy
5:30 AM 69.8 °F - 68.0 °F 94% 29.92 in 6.2 mi SW 4.6 mph - N/A   Mostly Cloudy
6:00 AM 71 °F - 69 °F 90% 29.94 in 12 mi NW 2.3 mph - -   Partly Cloudy
6:00 AM 71.6 °F - 68.0 °F 88% 29.92 in 6.2 mi NW 2.3 mph - N/A   Partly Cloudy
6:30 AM 73.4 °F - 66.2 °F 78% 29.95 in 6.2 mi North 9.2 mph - N/A   Partly Cloudy
7:00 AM 72 °F - 65 °F 71% 29.96 in - North 11.5 mph - -  
7:00 AM 71.6 °F - 64.4 °F 78% 29.95 in 6.2 mi North 11.5 mph - N/A   Scattered Clouds
7:30 AM 73.4 °F - 64.4 °F 73% 29.95 in 6.2 mi North 10.4 mph - N/A   Mostly Cloudy
8:00 AM 75.2 °F - 62.6 °F 65% 29.95 in 6.2 mi North 9.2 mph - N/A   Mostly Cloudy
8:30 AM 75.2 °F - 64.4 °F 69% 29.98 in 6.2 mi North 11.5 mph - N/A   Mostly Cloudy
9:00 AM 76 °F - 63 °F 56% 29.97 in 19 mi North 11.5 mph - -   Partly Cloudy
9:00 AM 75.2 °F - 62.6 °F 65% 29.95 in 6.2 mi North 11.5 mph - N/A   Mostly Cloudy
9:30 AM 75.2 °F - 62.6 °F 65% 29.95 in 6.2 mi North 11.5 mph - N/A   Scattered Clouds
10:00 AM 76 °F - 64 °F 58% 29.97 in - NNE 9.2 mph - -  
10:00 AM 75.2 °F - 64.4 °F 69% 29.95 in 6.2 mi NNE 9.2 mph - N/A   Mostly Cloudy
10:30 AM 77.0 °F - 66.2 °F 69% 29.95 in 6.2 mi NNE 15.0 mph - N/A   Mostly Cloudy
11:00 AM 78.8 °F - 64.4 °F 61% 29.95 in 6.2 mi NNE 17.3 mph - N/A   Mostly Cloudy
11:30 AM 78.8 °F - 64.4 °F 61% 29.92 in 6.2 mi NNE 18.4 mph - N/A   Scattered Clouds
12:00 PM 79 °F - 65 °F 55% 29.93 in 19 mi NNE 19.6 mph - -   Partly Cloudy
12:00 PM 78.8 °F - 66.2 °F 65% 29.92 in 6.2 mi NNE 19.6 mph - N/A   Mostly Cloudy
12:30 PM 78.8 °F - 66.2 °F 65% 29.92 in 6.2 mi NNE 19.6 mph - N/A   Mostly Cloudy
1:00 PM 80 °F - 66 °F 54% 29.91 in - NNE 20.7 mph - -  
1:00 PM 80.6 °F 82.7 °F 66.2 °F 61% 29.89 in 6.2 mi NNE 20.7 mph - N/A   Mostly Cloudy
1:30 PM 78.8 °F - 64.4 °F 61% 29.89 in 6.2 mi NNE 19.6 mph - N/A   Mostly Cloudy
2:00 PM 77.0 °F - 64.4 °F 65% 29.89 in 6.2 mi NNE 18.4 mph - N/A   Mostly Cloudy
2:30 PM 77.0 °F - 64.4 °F 65% 29.86 in 6.2 mi North 20.7 mph - N/A   Mostly Cloudy
3:00 PM 78 °F - 65 °F 55% 29.87 in 19 mi NNE 21.9 mph - -   Partly Cloudy
3:00 PM 78.8 °F - 64.4 °F 61% 29.86 in 6.2 mi NNE 21.9 mph - N/A   Mostly Cloudy
3:30 PM 75.2 °F - 66.2 °F 73% 29.86 in 6.2 mi North 21.9 mph - N/A   Mostly Cloudy
4:00 PM 75 °F - 66 °F 67% 29.88 in - North 17.3 mph - -  
4:00 PM 75.2 °F - 66.2 °F 73% 29.86 in 6.2 mi North 17.3 mph - N/A   Mostly Cloudy
4:30 PM 75.2 °F - 66.2 °F 73% 29.86 in 6.2 mi North 19.6 mph - N/A   Mostly Cloudy
5:00 PM 73.4 °F - 66.2 °F 78% 29.89 in 6.2 mi NNE 17.3 mph - N/A   Mostly Cloudy
5:30 PM 73.4 °F - 66.2 °F 78% 29.89 in 6.2 mi North 17.3 mph - N/A Rain Light Rain
6:00 PM 73 °F - 68 °F 78% 29.91 in 16 mi North 16.1 mph - - Rain Light Rain
6:00 PM 73.4 °F - 68.0 °F 83% 29.89 in 6.2 mi North 16.1 mph - N/A Rain Light Rain
6:30 PM 73.4 °F - 68.0 °F 83% 29.92 in 6.2 mi North 16.1 mph - N/A Rain Light Rain
7:00 PM 72 °F - 68 °F 84% 29.93 in - North 15.0 mph - -  
7:00 PM 71.6 °F - 68.0 °F 88% 29.92 in 6.2 mi North 15.0 mph - N/A Rain Light Rain
7:30 PM 73.4 °F - 68.0 °F 83% 29.92 in 6.2 mi North 15.0 mph - N/A   Mostly Cloudy
8:00 PM 73.4 °F - 68.0 °F 83% 29.92 in 6.2 mi North 16.1 mph - N/A Rain Light Rain
8:30 PM 73.4 °F - 68.0 °F 83% 29.95 in 6.2 mi NNE 16.1 mph - N/A   Mostly Cloudy
9:00 PM 73 °F - 69 °F 82% 29.98 in 11 mi North 15.0 mph - - Rain Light Rain
9:00 PM 73.4 °F - 68.0 °F 83% 29.98 in 6.2 mi North 15.0 mph - N/A Rain Light Rain
9:30 PM 73.4 °F - 68.0 °F 83% 29.95 in 6.2 mi North 16.1 mph - N/A Rain Light Rain
10:00 PM 73 °F - 68 °F 81% 29.97 in - North 15.0 mph - -  
10:00 PM 73.4 °F - 68.0 °F 83% 29.95 in 6.2 mi North 15.0 mph - N/A Rain Light Rain
10:30 PM 73.4 °F - 68.0 °F 83% 29.95 in 6.2 mi North 17.3 mph - N/A Rain Light Rain
11:00 PM 73.4 °F - 68.0 °F 83% 29.95 in 6.2 mi North 17.3 mph - N/A Rain Light Rain
11:30 PM 73.4 °F - 68.0 °F 83% 29.95 in 6.2 mi North 15.0 mph - N/A Rain Light Rain